HKE825 ROAH-VHHH

Flight info

Callsign HKE825
Flight time N/A
Altitude 36000
Route GANJU Y576 LILRA Y573 SEDKU R595 APU A1 ELATO V522 ABBEY
Aircraft A321/M-SDE3FGHIRWY/LB1

Departure

Time 2026-04-28 12:58
Airport Naha International Airport (ROAH)

Arrival

Time N/A
Airport Hong Kong International Airport (VHHH)
Time Latitude Longitude Altitude Speed Heading
2026-04-28 12:45 26.20439 127.64941 9 ft 0 kts
2026-04-28 12:49 26.20434 127.64941 9 ft 2 kts
2026-04-28 12:49 26.20419 127.64940 9 ft 2 kts
2026-04-28 12:49 26.20404 127.64939 9 ft 2 kts
2026-04-28 12:49 26.20390 127.64938 9 ft 2 kts
2026-04-28 12:50 26.20375 127.64941 9 ft 2 kts 328°
2026-04-28 12:50 26.20363 127.64952 9 ft 2 kts 305°
2026-04-28 12:50 26.20357 127.64967 9 ft 2 kts 280°
2026-04-28 12:50 26.20357 127.64984 9 ft 2 kts 265°
2026-04-28 12:51 26.20357 127.64990 9 ft 0 kts 268°
2026-04-28 12:52 26.20357 127.64983 9 ft 1 kts 268°
2026-04-28 12:53 26.20356 127.64963 9 ft 3 kts 267°
2026-04-28 12:53 26.20355 127.64925 9 ft 6 kts 266°
2026-04-28 12:53 26.20353 127.64865 9 ft 8 kts 268°
2026-04-28 12:53 26.20357 127.64817 9 ft 9 kts 286°
2026-04-28 12:54 26.20430 127.64754 9 ft 11 kts 354°
2026-04-28 12:54 26.20522 127.64749 9 ft 14 kts 358°
2026-04-28 12:54 26.20625 127.64745 9 ft 15 kts 356°
2026-04-28 12:54 26.20737 127.64739 9 ft 16 kts 357°
2026-04-28 12:55 26.20842 127.64734 9 ft 11 kts 351°
2026-04-28 12:55 26.20902 127.64674 9 ft 13 kts 279°
2026-04-28 12:55 26.20901 127.64651 9 ft 0 kts 266°
2026-04-28 12:56 26.20901 127.64649 9 ft 1 kts 266°
2026-04-28 12:56 26.20900 127.64634 9 ft 3 kts 267°
2026-04-28 12:56 26.20887 127.64556 9 ft 14 kts 240°
2026-04-28 12:57 26.20796 127.64529 9 ft 15 kts 177°
2026-04-28 12:57 26.20533 127.64542 9 ft 72 kts 177°
2026-04-28 12:57 26.19794 127.64575 9 ft 137 kts 176°
2026-04-28 12:57 26.18666 127.64618 93 ft 180 kts 177°
2026-04-28 12:58 26.17440 127.64653 809 ft 176 kts 178°
2026-04-28 12:58 26.16263 127.64687 1561 ft 169 kts 178°
2026-04-28 12:58 26.15080 127.64738 1955 ft 176 kts 178°
2026-04-28 12:58 26.13785 127.64809 2011 ft 202 kts 177°
2026-04-28 12:59 26.12328 127.64854 2314 ft 217 kts 183°
2026-04-28 12:59 26.10815 127.64577 2689 ft 230 kts 195°
2026-04-28 12:59 26.09238 127.64017 3008 ft 247 kts 199°
2026-04-28 12:59 26.07568 127.63369 3441 ft 260 kts 199°
2026-04-28 13:00 26.05860 127.62706 4130 ft 263 kts 199°
2026-04-28 13:00 26.04134 127.62042 4836 ft 266 kts 199°
2026-04-28 13:00 26.02394 127.61378 5538 ft 269 kts 199°
2026-04-28 13:00 26.00630 127.60706 6268 ft 272 kts 200°
2026-04-28 13:01 25.98830 127.60023 7015 ft 275 kts 200°
2026-04-28 13:01 25.97064 127.59257 7748 ft 278 kts 209°
2026-04-28 13:01 25.95510 127.58009 8485 ft 279 kts 225°
2026-04-28 13:01 25.94229 127.56393 9237 ft 281 kts 231°
2026-04-28 13:02 25.93009 127.54707 9949 ft 284 kts 231°
2026-04-28 13:02 25.91769 127.52982 10552 ft 291 kts 231°
2026-04-28 13:02 25.90466 127.51184 10864 ft 308 kts 231°
2026-04-28 13:02 25.89086 127.49300 11164 ft 324 kts 231°
2026-04-28 13:03 25.87606 127.47302 11459 ft 341 kts 231°
2026-04-28 13:03 25.86091 127.45253 11739 ft 357 kts 231°
2026-04-28 13:03 25.84479 127.43069 12017 ft 372 kts 231°
2026-04-28 13:03 25.82860 127.40729 12272 ft 388 kts 238°
2026-04-28 13:04 25.81774 127.37949 12537 ft 401 kts 255°
2026-04-28 13:04 25.81481 127.34871 13027 ft 409 kts 272°
2026-04-28 13:04 25.81722 127.31747 13726 ft 411 kts 275°
2026-04-28 13:04 25.82038 127.28588 14329 ft 415 kts 276°
2026-04-28 13:05 25.82363 127.25400 14958 ft 418 kts 276°
2026-04-28 13:05 25.82685 127.22164 15635 ft 419 kts 275°
2026-04-28 13:05 25.82997 127.18948 16289 ft 421 kts 275°
2026-04-28 13:05 25.83298 127.15756 16903 ft 423 kts 275°
2026-04-28 13:06 25.83601 127.12505 17514 ft 425 kts 275°
2026-04-28 13:06 25.83901 127.09259 18111 ft 426 kts 274°
2026-04-28 13:06 25.84203 127.05961 18700 ft 428 kts 274°
2026-04-28 13:06 25.84503 127.02676 19239 ft 430 kts 274°
2026-04-28 13:07 25.84801 126.99398 19744 ft 433 kts 274°
2026-04-28 13:07 25.85102 126.96072 20241 ft 436 kts 274°
2026-04-28 13:07 25.85407 126.92697 20735 ft 438 kts 274°
2026-04-28 13:07 25.85609 126.90464 21051 ft 440 kts 274°
2026-04-28 13:08 25.86013 126.85974 21656 ft 444 kts 274°
2026-04-28 13:08 25.86322 126.82526 22106 ft 446 kts 274°
2026-04-28 13:08 25.86629 126.79108 22537 ft 449 kts 274°
2026-04-28 13:08 25.86783 126.75678 22930 ft 450 kts 267°
2026-04-28 13:09 25.86369 126.72220 23409 ft 449 kts 256°
2026-04-28 13:09 25.85394 126.68962 24026 ft 446 kts 246°
2026-04-28 13:09 25.83986 126.65941 24617 ft 443 kts 241°
2026-04-28 13:09 25.82463 126.62966 25136 ft 442 kts 241°
2026-04-28 13:10 25.80939 126.60035 25596 ft 442 kts 240°
2026-04-28 13:10 25.79406 126.57086 26054 ft 441 kts 241°
2026-04-28 13:10 25.77880 126.54141 26512 ft 440 kts 241°
2026-04-28 13:10 25.76365 126.51208 26958 ft 439 kts 241°
2026-04-28 13:11 25.74863 126.48299 27384 ft 439 kts 241°
2026-04-28 13:11 25.73354 126.45367 27768 ft 439 kts 241°
2026-04-28 13:11 25.71852 126.42449 28131 ft 439 kts 241°
2026-04-28 13:11 25.70328 126.39494 28527 ft 438 kts 241°
2026-04-28 13:12 25.68833 126.36597 28919 ft 437 kts 241°
2026-04-28 13:12 25.67331 126.33688 29299 ft 436 kts 240°
2026-04-28 13:12 25.65823 126.30756 29672 ft 436 kts 240°
2026-04-28 13:12 25.64320 126.27834 30027 ft 435 kts 240°
2026-04-28 13:13 25.62833 126.24949 30381 ft 434 kts 241°
2026-04-28 13:13 25.61337 126.22061 30774 ft 432 kts 241°
2026-04-28 13:13 25.59841 126.19174 31174 ft 430 kts 242°
2026-04-28 13:13 25.58364 126.16322 31523 ft 429 kts 242°
2026-04-28 13:14 25.56881 126.13459 31846 ft 428 kts 242°
2026-04-28 13:14 25.55421 126.10644 32157 ft 427 kts 242°
2026-04-28 13:14 25.53946 126.07803 32472 ft 426 kts 242°
2026-04-28 13:14 25.52464 126.04949 32780 ft 425 kts 242°
2026-04-28 13:15 25.51005 126.02142 33076 ft 424 kts 242°
2026-04-28 13:15 25.49531 125.99309 33372 ft 423 kts 242°
2026-04-28 13:15 25.48067 125.96497 33656 ft 422 kts 242°
2026-04-28 13:15 25.46619 125.93718 33921 ft 421 kts 243°
2026-04-28 13:16 25.45158 125.90915 34173 ft 421 kts 243°
2026-04-28 13:16 25.43695 125.88110 34399 ft 421 kts 243°
2026-04-28 13:16 25.42246 125.85330 34588 ft 422 kts 243°
2026-04-28 13:16 25.40769 125.82501 34771 ft 423 kts 243°
2026-04-28 13:17 25.39304 125.79697 34954 ft 423 kts 243°
2026-04-28 13:17 25.37836 125.76892 35137 ft 424 kts 243°
2026-04-28 13:17 25.36370 125.74093 35315 ft 424 kts 243°
2026-04-28 13:17 25.34876 125.71240 35529 ft 424 kts 243°
2026-04-28 13:18 25.33412 125.68474 35738 ft 423 kts 243°
2026-04-28 13:18 25.31924 125.65679 35900 ft 423 kts 243°
2026-04-28 13:18 25.30425 125.62867 36011 ft 425 kts 243°
2026-04-28 13:19 25.27429 125.57252 36020 ft 425 kts 243°
2026-04-28 13:19 25.24430 125.51637 36021 ft 425 kts 243°
2026-04-28 13:20 25.21426 125.46032 36021 ft 423 kts 244°
2026-04-28 13:20 25.18457 125.40478 36027 ft 424 kts 244°
2026-04-28 13:21 25.15463 125.34894 36037 ft 424 kts 243°
2026-04-28 13:21 25.12468 125.29295 36033 ft 424 kts 243°
2026-04-28 13:22 25.09321 125.23805 36027 ft 426 kts 239°
2026-04-28 13:22 25.05814 125.18578 36024 ft 425 kts 237°
2026-04-28 13:23 25.02264 125.13370 36022 ft 425 kts 237°
2026-04-28 13:23 24.98663 125.08212 36021 ft 426 kts 235°
2026-04-28 13:24 24.94937 125.03177 36021 ft 426 kts 234°
2026-04-28 13:24 24.91188 124.98130 36021 ft 426 kts 235°
2026-04-28 13:25 24.87627 124.92973 36021 ft 422 kts 242°
2026-04-28 13:25 24.85214 124.87156 36022 ft 417 kts 255°
2026-04-28 13:26 24.84173 124.80939 36022 ft 413 kts 268°
2026-04-28 13:26 24.84467 124.74663 36024 ft 413 kts 277°
2026-04-28 13:27 24.85214 124.68420 36021 ft 412 kts 278°
2026-04-28 13:27 24.85975 124.62178 36021 ft 412 kts 278°
2026-04-28 13:28 24.86729 124.55945 36021 ft 412 kts 278°
2026-04-28 13:28 24.87477 124.49716 36021 ft 412 kts 278°
2026-04-28 13:29 24.88221 124.43491 36021 ft 412 kts 278°
2026-04-28 13:29 24.88966 124.37235 36021 ft 412 kts 278°
2026-04-28 13:30 24.89700 124.31027 36022 ft 412 kts 278°
2026-04-28 13:30 24.90435 124.24786 36021 ft 412 kts 278°
2026-04-28 13:31 24.91537 124.15430 36021 ft 411 kts 277°
2026-04-28 13:31 24.92263 124.09207 36021 ft 411 kts 277°
2026-04-28 13:32 24.92992 124.02941 36021 ft 411 kts 277°
2026-04-28 13:32 24.93697 123.96713 36021 ft 411 kts 277°
2026-04-28 13:33 24.94356 123.90488 36021 ft 411 kts 277°
2026-04-28 13:33 24.95014 123.84240 36021 ft 411 kts 277°
2026-04-28 13:34 24.95672 123.77988 36021 ft 411 kts 277°
2026-04-28 13:34 24.96331 123.71742 36021 ft 412 kts 276°
2026-04-28 13:35 24.96985 123.65489 36021 ft 412 kts 276°
2026-04-28 13:35 24.97635 123.59235 36012 ft 412 kts 276°
2026-04-28 13:36 24.98280 123.53005 36002 ft 412 kts 276°
2026-04-28 13:36 24.98930 123.46722 35996 ft 412 kts 276°
2026-04-28 13:37 24.99572 123.40475 35994 ft 412 kts 276°
2026-04-28 13:37 25.00213 123.34219 35994 ft 412 kts 276°
2026-04-28 13:38 25.00853 123.27925 35993 ft 412 kts 276°
2026-04-28 13:38 25.01488 123.21671 35993 ft 414 kts 276°
2026-04-28 13:39 25.02125 123.15369 35993 ft 415 kts 276°
2026-04-28 13:39 25.02762 123.09031 35993 ft 415 kts 276°
2026-04-28 13:40 25.03392 123.02728 35993 ft 415 kts 276°
2026-04-28 13:40 25.04021 122.96433 35993 ft 415 kts 276°
2026-04-28 13:41 25.04653 122.90095 35993 ft 415 kts 276°
2026-04-28 13:41 25.05281 122.83766 35993 ft 415 kts 276°
2026-04-28 13:42 25.05908 122.77422 35993 ft 415 kts 276°
2026-04-28 13:42 25.06527 122.71127 35993 ft 416 kts 276°
2026-04-28 13:43 25.07150 122.64777 35993 ft 416 kts 276°
2026-04-28 13:43 25.07768 122.58423 35993 ft 416 kts 276°
2026-04-28 13:44 25.08384 122.52076 35993 ft 416 kts 276°
2026-04-28 13:44 25.08993 122.45774 35993 ft 416 kts 276°